Probability
0 0 0 0 0 0 0 0 0 0 2 4 5 7 11 13 14 16 22 30 30 27 28 32 36 37 37 39 39 37 35 35 34 32 29 27 22 15 12 15 17 18 19 21
0 0 0 1 1 0 0 0 0 1 2 3 4 7 9 10 11 14 21 27 27 25 26 30 35 37 38 39 39 36 35 35 34 32 30 27 22 18 17 20 22 21 21 22
0 0 0 1 1 1 1 1 1 2 3 3 4 7 9 9 9 12 18 22 23 24 26 30 35 38 38 40 40 38 35 35 35 32 29 26 22 20 21 24 25 24 23 23
0 0 1 1 1 1 2 2 3 3 3 3 5 8 11 11 11 13 17 19 21 25 28 32 37 39 39 41 41 39 37 36 33 29 27 26 23 21 21 23 23 24 24 24
0 0 1 1 0 1 2 3 2 2 2 4 7 11 14 16 16 18 19 20 23 26 30 36 40 41 40 38 37 36 35 33 29 25 23 23 22 20 19 20 21 22 24 25
0 0 1 1 0 1 3 3 1 1 2 5 9 13 17 19 22 25 25 26 28 30 33 38 40 39 36 32 30 29 28 27 26 23 20 19 19 17 17 18 19 19 20 22
0 0 1 1 0 2 5 5 3 3 4 7 10 14 18 23 27 31 32 31 32 33 34 35 34 34 33 29 26 24 23 22 22 20 16 13 14 14 15 16 15 14 15 15
0 1 1 1 0 3 7 8 6 4 7 11 14 16 18 22 28 31 32 31 31 30 29 28 26 29 31 29 26 24 22 19 17 15 11 8 9 11 11 11 10 8 9 9
2 2 2 1 1 2 5 8 7 6 9 13 15 16 16 19 24 26 26 27 26 26 26 24 23 26 30 30 28 24 21 17 13 12 8 7 8 8 7 7 7 5 5 5
6 5 3 3 3 3 4 6 7 8 10 12 12 12 14 17 21 23 24 24 24 25 28 27 25 25 29 30 28 25 20 16 13 12 10 9 9 7 6 6 5 5 4 4
10 9 7 5 5 5 6 8 10 11 12 12 11 10 13 17 21 24 26 25 25 27 30 30 26 24 25 28 28 25 20 14 12 11 10 10 9 7 5 5 5 5 5 4
11 12 12 9 8 9 10 11 12 13 13 13 12 10 13 18 22 26 28 28 28 28 29 27 24 21 21 23 25 23 18 13 9 9 10 11 10 6 3 2 2 3 3 3
9 11 12 11 10 10 10 10 12 13 13 13 13 13 16 20 23 26 28 28 27 26 24 21 19 18 17 18 20 19 15 10 8 8 9 10 9 6 2 1 0 1 1 1
5 8 11 10 8 7 7 7 8 11 12 14 16 18 20 22 23 23 24 23 21 19 17 15 15 16 15 15 15 13 10 8 7 8 9 9 7 5 3 1 1 1 0 0
4 6 8 7 5 4 5 6 8 11 15 18 20 20 21 21 19 17 16 15 13 11 10 10 10 11 12 12 12 10 8 8 8 9 9 8 6 4 3 2 2 1 0 0
4 6 7 6 5 5 5 6 8 12 16 17 18 18 17 16 14 11 9 8 8 7 6 5 6 7 9 9 9 8 8 7 7 8 8 6 5 3 2 2 2 1 1 0
4 5 6 6 6 5 5 5 6 9 11 10 10 12 12 10 8 7 6 6 6 5 4 3 4 6 7 7 7 6 6 5 6 7 7 6 4 3 1 0 0 1 1 1
3 3 3 4 4 4 4 3 3 4 5 5 5 6 7 6 4 4 5 5 5 4 3 3 4 5 6 5 4 4 4 4 5 6 6 5 3 1 0 0 0 0 1 1
3 2 1 1 1 1 2 2 2 3 3 3 3 3 4 3 3 3 5 4 4 3 3 3 3 4 4 4 3 3 3 4 4 4 3 2 1 0 0 0 0 0 0 1
3 3 2 0 0 0 1 1 1 1 2 3 3 3 3 2 2 3 3 3 3 3 3 3 3 3 3 3 3 3 3 2 2 1 1 0 0 0 0 0 0 0 0 0
3 2 1 0 0 0 0 0 0 0 1 2 2 2 2 1 1 1 2 2 1 1 2 2 2 2 2 1 1 2 1 1 0 0 0 0 0 0 0 0 0 0 0 0
2 1 0 0 0 0 0 0 0 0 0 1 1 1 1 0 0 0 1 1 1 0 0 0 1 1 1 0 0 0 0 0 0 0 0 0 0 0 0 0 0 0 0 0
1 0 0 0 0 0 0 0 0 0 0 0 0 0 0 0 0 0 1 1 1 0 0 0 0 0 0 0 0 0 0 0 0 0 0 0 0 0 0 0 0 0 0 0
0 0 0 0 0 0 0 0 0 0 0 0 0 0 0 0 0 1 1 1 1 0 0 0 0 0 0 0 0 0 0 0 0 0 0 0 0 0 0 0 0 0 0 0
0 0 0 0 0 0 0 0 0 0 0 0 0 0 1 1 1 1 1 0 0 0 0 0 0 0 0 0 0 0 0 0 0 0 0 0 0 0 0 0 0 0 0 0
0 0 0 0 0 0 0 1 2 1 1 0 0 1 2 2 2 1 0 0 0 0 0 0 0 0 0 0 0 0 0 0 0 0 0 0 0 0 0 0 0 0 0 0
0 0 0 0 0 0 1 2 3 2 2 1 1 2 3 3 1 0 0 0 0 0 0 0 0 0 0 0 0 0 0 0 0 0 0 0 0 0 0 0 0 0 0 0
Wind_Speed
6 4 9 13 14 15 15 14 12 9 8 4 2 1 1 2 3 4 5 6 6 6 5 6 6 6 6 6 6 6 6 6 6 5 5 5 5 5 5 5 5 5 5 4
9 8 8 10 13 14 14 13 12 10 8 3 2 2 2 2 4 4 5 5 6 5 6 6 6 6 6 6 5 5 6 6 5 5 5 5 4 5 5 5 4 4 3 4
10 10 9 12 11 13 12 11 11 11 6 3 4 3 2 2 3 4 4 4 5 5 5 5 5 5 6 6 5 5 5 5 5 5 5 5 5 5 4 4 4 4 3 3
8 9 13 5 4 7 9 9 8 6 3 3 2 1 1 2 2 3 4 4 3 4 4 5 5 5 6 6 6 5 5 5 5 5 5 5 4 4 4 3 3 3 3 2
8 11 8 6 5 6 8 7 5 5 4 3 3 4 4 3 3 3 3 3 3 3 4 5 5 6 6 6 6 5 4 4 4 5 5 5 5 4 3 3 3 3 2 2
9 10 9 5 5 3 6 7 3 3 3 3 5 6 4 4 3 3 4 4 3 4 5 5 5 6 6 6 5 5 4 3 4 4 4 5 5 4 4 4 4 3 3 3
10 9 5 4 4 6 9 2 2 1 2 3 3 2 4 4 4 4 5 5 5 5 5 5 5 6 6 5 4 4 4 3 4 4 4 4 4 4 4 4 4 3 4 3
10 10 5 4 4 4 3 4 2 1 0 1 2 4 5 5 5 5 5 6 6 5 6 5 5 5 5 5 4 4 4 4 4 3 3 3 4 4 3 4 4 4 4 3
4 1 5 2 1 3 3 3 2 1 2 3 4 4 5 5 5 5 5 5 5 6 6 5 5 5 5 4 4 5 5 5 4 4 3 3 4 4 3 3 3 3 3 3
3 2 2 2 1 2 2 2 2 1 2 3 4 5 5 5 5 5 5 5 5 6 6 5 4 5 5 4 4 5 5 5 4 4 4 4 2 2 2 2 2 2 2 3
4 3 2 2 1 1 1 1 2 2 2 3 5 5 6 5 5 4 4 4 4 5 5 5 5 4 4 4 4 5 5 5 4 4 5 5 5 5 4 5 4 2 2 3
2 1 1 1 1 2 1 1 1 2 2 3 4 6 6 6 5 4 4 4 5 5 5 5 5 4 4 3 4 5 5 5 4 4 4 5 7 8 13 10 11 11 9 7
2 1 1 0 1 1 1 1 1 2 3 4 5 6 6 6 6 5 5 5 5 5 5 5 4 4 3 3 4 5 5 5 4 4 4 4 5 6 7 8 12 12 11 11
2 2 2 2 1 1 1 2 3 3 4 5 6 6 6 7 7 6 6 5 5 5 5 5 5 4 3 4 4 5 5 5 4 4 4 4 5 5 5 6 7 7 9 10
3 3 3 2 1 1 2 3 4 5 6 7 7 7 7 7 7 7 6 6 6 6 6 6 5 5 4 4 5 5 5 4 4 4 5 5 5 5 6 6 6 6 7 7
3 3 4 4 4 3 4 4 5 6 7 7 7 7 7 8 8 7 7 6 7 7 6 6 5 4 4 5 6 5 5 7 5 5 5 5 5 5 6 6 6 5 5 5
5 5 5 5 4 4 5 5 5 6 7 7 7 8 8 8 8 7 6 6 7 7 6 6 5 5 5 5 5 5 6 7 8 6 6 6 6 6 6 6 6 6 6 6
3 3 4 4 4 5 6 6 7 8 7 8 8 8 8 8 8 7 6 6 7 8 7 6 5 6 6 6 5 5 6 6 6 7 6 6 6 6 6 7 8 8 7 6
4 4 4 4 5 6 7 8 8 8 8 8 9 9 8 8 7 7 7 7 7 7 6 6 6 7 7 7 6 5 7 8 8 8 7 7 7 7 7 7 7 7 6 5
5 5 6 7 7 8 8 8 9 8 8 9 10 9 9 8 7 7 7 7 5 5 5 6 6 7 7 7 6 6 7 8 8 8 7 7 7 7 7 7 7 7 6 6
6 7 8 9 9 9 9 9 9 9 8 9 9 9 8 8 7 7 6 6 6 6 6 6 6 6 6 6 6 7 7 8 8 8 7 7 7 7 7 7 7 7 6 6
7 7 8 9 10 10 9 9 9 10 9 9 10 9 9 8 8 8 7 5 5 5 5 5 6 7 7 6 7 7 8 8 7 7 7 7 7 7 7 7 7 6 6 6
7 8 9 10 10 10 10 10 10 9 9 9 9 9 8 7 6 6 7 5 5 6 6 7 8 8 6 6 7 8 8 8 7 7 7 6 6 7 7 7 6 6 5 5
8 9 9 10 10 11 11 10 10 8 9 9 9 8 8 7 7 6 7 8 8 8 8 8 8 6 5 6 7 7 7 7 7 7 7 6 6 6 6 6 6 5 5 6
8 9 10 10 9 8 10 11 11 10 10 8 9 8 6 6 7 7 8 9 9 8 9 8 6 5 6 7 7 7 7 7 6 6 6 6 6 6 6 6 6 5 5 4
8 7 7 7 7 7 7 7 8 8 8 8 7 7 7 7 8 8 7 9 10 8 7 7 7 5 6 7 7 7 7 7 6 6 6 6 6 6 5 5 6 5 4 4
8 7 7 7 7 6 6 7 8 8 8 8 9 8 8 7 7 8 8 8 7 7 6 6 6 6 6 6 7 6 6 6 6 6 5 5 5 5 5 5 4 3 3 3
Wind_Direction
242 215 201 204 208 211 222 233 240 232 236 233 212 203 153 154 153 149 144 144 143 144 145 148 152 158 162 167 168 170 175 183 190 188 188 190 193 193 194 200 204 203 207 210
218 212 216 216 215 215 222 232 238 242 241 226 208 192 175 164 159 158 152 148 146 147 150 155 157 160 159 160 161 166 172 175 175 173 173 176 181 183 182 186 191 190 196 203
214 203 214 220 219 218 219 227 236 238 238 202 199 202 195 160 157 155 151 145 146 147 153 157 157 158 160 157 156 159 164 161 162 163 163 169 176 175 178 177 177 179 190 201
211 198 221 205 198 223 223 225 233 243 240 217 207 179 131 124 136 142 139 137 137 142 144 147 145 147 150 148 151 155 158 158 162 164 164 161 159 163 169 169 165 167 177 181
218 212 216 179 183 208 214 213 220 231 222 211 175 174 151 103 113 125 123 125 122 127 135 136 135 140 145 144 145 149 152 155 163 167 163 155 153 157 158 151 146 153 146 142
222 224 218 167 138 192 227 209 185 224 219 206 204 213 137 88 90 99 100 104 108 118 126 125 127 137 142 142 144 143 139 147 156 161 160 155 151 152 149 148 143 133 117 112
224 227 218 107 139 195 221 163 97 191 210 211 226 343 91 97 92 96 100 102 104 110 110 111 123 132 134 133 130 121 119 130 139 147 153 149 141 142 143 145 138 129 117 109
222 226 200 118 183 220 35 41 36 37 136 121 105 107 113 108 105 105 106 106 106 106 100 102 114 122 122 122 119 118 120 119 119 131 148 138 133 136 140 144 144 138 126 116
239 240 67 87 67 41 17 9 9 14 90 123 126 125 122 116 112 110 107 104 106 110 106 102 109 118 120 119 122 124 124 121 117 118 119 123 129 138 147 157 163 151 142 128
222 172 130 105 76 48 27 13 14 62 113 130 136 136 127 115 111 110 106 105 105 108 107 103 103 105 110 117 125 129 126 125 126 122 115 107 105 115 122 135 148 140 131 121
213 192 173 149 83 51 50 38 57 84 111 134 139 136 130 124 117 110 106 102 102 104 105 101 96 95 103 111 118 122 122 123 122 115 107 93 75 50 57 48 30 50 94 94
226 169 239 143 37 347 1 85 98 100 104 121 135 136 131 121 113 108 102 101 102 102 104 103 100 94 95 104 115 122 127 129 125 119 118 116 107 86 57 57 57 57 54 70
294 315 336 312 313 328 0 94 110 118 127 125 120 123 121 115 111 107 101 98 97 98 101 103 101 96 96 105 114 117 118 121 118 117 119 118 117 116 107 80 70 64 65 73
225 215 219 220 232 19 80 98 105 111 115 114 114 115 115 113 107 100 94 93 94 95 96 96 93 86 86 99 110 115 116 111 118 119 115 114 112 112 115 116 107 92 79 77
238 241 226 201 188 159 145 137 129 123 118 115 115 114 114 111 106 99 95 93 93 89 84 82 78 74 78 99 110 114 117 116 113 111 109 107 106 106 104 102 102 105 107 98
198 193 190 186 182 176 164 148 138 131 125 119 112 107 107 106 103 98 94 94 93 86 79 76 71 73 88 100 107 107 103 100 109 114 112 111 109 108 105 102 99 96 94 99
201 197 191 183 176 169 157 147 138 130 123 118 114 113 111 107 100 94 88 86 88 86 81 76 71 73 87 93 101 104 105 108 110 108 104 103 102 102 102 102 99 93 84 69
209 199 183 167 168 152 138 130 127 121 118 117 115 112 109 105 103 99 91 89 88 82 73 69 69 79 81 81 88 98 104 105 102 98 96 92 94 96 97 97 100 100 99 96
154 149 143 138 138 136 128 123 121 120 121 121 116 109 103 99 99 99 94 87 82 77 66 66 69 80 80 79 86 95 97 99 97 94 95 97 95 92 93 94 95 94 95 92
136 132 128 123 121 122 122 122 120 117 120 121 115 109 104 101 100 99 94 82 67 70 76 77 82 81 84 83 80 93 96 99 100 99 97 94 92 90 89 90 91 91 88 84
124 121 120 119 117 117 120 124 123 122 122 121 116 112 108 102 98 96 93 84 69 70 82 79 80 84 85 86 86 91 95 97 98 99 99 97 96 94 94 94 91 88 86 84
121 120 120 118 116 114 116 121 122 122 120 117 115 115 112 108 103 94 82 79 82 74 87 87 84 76 80 88 93 94 95 97 97 98 98 98 99 98 95 92 90 88 85 82
118 119 118 116 114 114 115 116 118 118 119 117 116 116 112 106 103 102 95 87 91 81 82 80 78 78 82 94 96 98 97 96 95 96 97 97 96 96 96 95 91 89 88 87
118 116 114 115 115 116 116 114 113 112 113 111 109 110 113 110 101 93 97 97 89 90 88 82 80 79 84 95 96 95 94 94 94 94 94 95 96 97 97 96 95 91 89 87
118 117 118 121 120 118 118 119 117 116 114 110 109 109 106 104 106 105 106 107 108 106 102 95 89 86 95 93 94 94 92 89 91 94 97 96 97 98 98 98 97 95 91 87
118 119 118 118 117 120 124 125 123 123 121 118 114 111 109 108 110 112 111 111 108 107 106 107 105 104 94 94 93 92 95 100 101 98 95 95 96 96 95 95 96 91 88 85
120 120 119 116 117 122 123 121 121 121 121 120 116 114 112 111 111 112 112 112 111 106 102 101 100 96 93 92 90 90 89 91 92 92 95 94 93 93 93 94 90 89 89 87